Weather History for K9D7 - October, 2011

Change the Weather History Date:

Saturday, October 1, 2011

  Actual Average (KDVL) Record (KDVL)
Temperature  
Mean Temperature 62 °F -  
Max Temperature 75 °F 63 °F 93 °F (1989)
Min Temperature 48 °F 38 °F 21 °F (1974)
Degree Days  
Heating Degree Days 4    
Growing Degree Days 12 (Base 50)    
Moisture  
Dew Point 40 °F    
Average Humidity 53    
Maximum Humidity 72    
Minimum Humidity 33    
Precipitation  
Precipitation 0.00 in - - ()
Sea Level Pressure  
Sea Level Pressure 29.96 in    
Wind  
Wind Speed 16 mph (South)    
Max Wind Speed 21 mph    
Max Gust Speed 29 mph    
Visibility 10 miles    
Events      
Averages and records for this station are not official NWS values.
T = Trace of Precipitation, MM = Missing Value Source: NWS Daily Summary

Daily Weather History Graph

Daily Weather History Graph

Search for Another Location

Airport or City:

Trip Planner

Search our weather history database for the weather conditions in past years. The results will help you decide how hot, cold, wet, or windy it might be!

Date:

Astronomy

Oct. 01, 2011 Rise Set
Actual Time 7:36 AM CDT 7:16 PM CDT
Civil Twilight 7:04 AM CDT 7:47 PM CDT
Nautical Twilight 6:28 AM CDT 8:23 PM CDT
Astronomical Twilight 5:51 AM CDT 9:00 PM CDT
Moon 1:12 PM CDT (10/1) 9:46 PM CDT (10/1)
Length of Visible Light 12h 42m
Length of Day
11h 40m
Waxing Crescent, 24% of the Moon is Illuminated
Oct 1
Waxing Crescent
Oct 3
First Quarter
Oct 11
Full
Oct 19
Last Quarter
Oct 26
New

Hourly Weather History & Observations

Time (CDT) Temp. Dew Point Humidity Pressure Visibility Wind Dir Wind Speed Gust Speed Precip Events Conditions
12:15 AM 50.0 °F 37.4 °F 62% 30.06 in 10.0 mi SSE 13.8 mph - N/A   Clear
12:35 AM 50.0 °F 37.4 °F 62% 30.05 in 10.0 mi South 17.3 mph 21.9 mph N/A   Clear
12:55 AM 50.0 °F 37.4 °F 62% 30.05 in 10.0 mi South 17.3 mph 21.9 mph N/A   Clear
1:15 AM 50.0 °F 35.6 °F 58% 30.04 in 10.0 mi South 18.4 mph 24.2 mph N/A   Clear
1:35 AM 50.0 °F 35.6 °F 58% 30.04 in 10.0 mi South 18.4 mph 25.3 mph N/A   Clear
1:55 AM 50.0 °F 37.4 °F 62% 30.04 in 10.0 mi South 16.1 mph - N/A   Clear
2:15 AM 50.0 °F 37.4 °F 62% 30.03 in 10.0 mi South 16.1 mph - N/A   Clear
2:35 AM 50.0 °F 37.4 °F 62% 30.03 in 10.0 mi South 15.0 mph 21.9 mph N/A   Clear
2:55 AM 50.0 °F 37.4 °F 62% 30.02 in 10.0 mi SSE 17.3 mph - N/A   Clear
3:15 AM 50.0 °F 37.4 °F 62% 30.02 in 10.0 mi South 18.4 mph 23.0 mph N/A   Clear
3:35 AM 50.0 °F 35.6 °F 58% 30.01 in 10.0 mi South 19.6 mph 24.2 mph N/A   Clear
3:55 AM 50.0 °F 35.6 °F 58% 30.00 in 10.0 mi South 20.7 mph 26.5 mph N/A   Clear
4:15 AM 50.0 °F 35.6 °F 58% 30.00 in 10.0 mi South 19.6 mph 28.8 mph N/A   Clear
4:35 AM 50.0 °F 35.6 °F 58% 29.99 in 10.0 mi South 20.7 mph 27.6 mph N/A   Clear
5:15 AM 50.0 °F 35.6 °F 58% 29.99 in 10.0 mi South 20.7 mph 27.6 mph N/A   Clear
5:35 AM 50.0 °F 35.6 °F 58% 29.99 in 10.0 mi South 19.6 mph - N/A   Clear
5:55 AM 50.0 °F 35.6 °F 58% 29.99 in 10.0 mi South 18.4 mph 23.0 mph N/A   Clear
6:15 AM 50.0 °F 35.6 °F 58% 29.98 in 10.0 mi South 18.4 mph 24.2 mph N/A   Clear
6:35 AM 50.0 °F 35.6 °F 58% 29.98 in 10.0 mi South 18.4 mph 23.0 mph N/A   Clear
6:55 AM 48.2 °F 37.4 °F 66% 29.98 in 10.0 mi South 16.1 mph 24.2 mph N/A   Clear
7:15 AM 48.2 °F 37.4 °F 66% 29.98 in 10.0 mi South 16.1 mph - N/A   Clear
7:35 AM 48.2 °F 37.4 °F 66% 29.97 in 10.0 mi South 16.1 mph - N/A   Clear
7:55 AM 48.2 °F 37.4 °F 66% 29.98 in 10.0 mi South 13.8 mph - N/A   Clear
8:15 AM 48.2 °F 37.4 °F 66% 29.98 in 10.0 mi South 15.0 mph - N/A   Clear
8:35 AM 50.0 °F 37.4 °F 62% 29.97 in 10.0 mi South 16.1 mph 20.7 mph N/A   Clear
8:55 AM 50.0 °F 37.4 °F 62% 29.96 in 10.0 mi South 17.3 mph - N/A   Clear
9:15 AM 51.8 °F 37.4 °F 58% 29.97 in 10.0 mi South 18.4 mph 24.2 mph N/A   Clear
9:35 AM 53.6 °F 37.4 °F 54% 29.97 in 10.0 mi South 19.6 mph 25.3 mph N/A   Clear
9:55 AM 53.6 °F 37.4 °F 54% 29.96 in 10.0 mi South 19.6 mph 25.3 mph N/A   Clear
10:15 AM 55.4 °F 37.4 °F 51% 29.96 in 10.0 mi SSW 20.7 mph 25.3 mph N/A   Clear
10:35 AM 55.4 °F 37.4 °F 51% 29.96 in 10.0 mi South 19.6 mph - N/A   Clear
11:15 AM 59.0 °F 39.2 °F 48% 29.96 in 10.0 mi SSW 16.1 mph - N/A   Clear
11:35 AM 60.8 °F 39.2 °F 45% 29.95 in 10.0 mi South 18.4 mph 21.9 mph N/A   Clear
11:55 AM 62.6 °F 39.2 °F 42% 29.95 in 10.0 mi South 19.6 mph - N/A   Clear
12:15 PM 64.4 °F 39.2 °F 40% 29.94 in 10.0 mi South 17.3 mph 21.9 mph N/A   Clear
12:35 PM 66.2 °F 41.0 °F 40% 29.94 in 10.0 mi South 17.3 mph - N/A   Clear
12:55 PM 66.2 °F 41.0 °F 40% 29.93 in 10.0 mi South 17.3 mph - N/A   Clear
1:15 PM 66.2 °F 41.0 °F 40% 29.93 in 10.0 mi South 15.0 mph - N/A   Clear
1:35 PM 68.0 °F 41.0 °F 37% 29.93 in 10.0 mi SSW 13.8 mph - N/A   Clear
1:55 PM 69.8 °F 41.0 °F 35% 29.92 in 10.0 mi South 16.1 mph - N/A   Clear
2:15 PM 71.6 °F 42.8 °F 35% 29.91 in 10.0 mi South 19.6 mph 23.0 mph N/A   Clear
2:35 PM 71.6 °F 42.8 °F 35% 29.91 in 10.0 mi South 17.3 mph 23.0 mph N/A   Clear
2:55 PM 73.4 °F 42.8 °F 33% 29.91 in 10.0 mi SSW 17.3 mph 25.3 mph N/A   Clear
3:35 PM 73.4 °F 44.6 °F 36% 29.91 in 10.0 mi SW 16.1 mph 19.6 mph N/A   Clear
3:55 PM 73.4 °F 44.6 °F 36% 29.92 in 10.0 mi SW 15.0 mph 23.0 mph N/A   Clear
4:15 PM 75.2 °F 44.6 °F 34% 29.92 in 10.0 mi SSW 17.3 mph 20.7 mph N/A   Clear
4:35 PM 75.2 °F 44.6 °F 34% 29.91 in 10.0 mi SSW 16.1 mph 21.9 mph N/A   Clear
4:55 PM 75.2 °F 44.6 °F 34% 29.91 in 10.0 mi South 12.7 mph - N/A   Clear
5:15 PM 75.2 °F 44.6 °F 34% 29.91 in 10.0 mi SSW 12.7 mph - N/A   Clear
5:35 PM 75.2 °F 46.4 °F 36% 29.92 in 10.0 mi SW 13.8 mph - N/A   Clear
5:55 PM 73.4 °F 46.4 °F 38% 29.91 in 10.0 mi SSW 11.5 mph - N/A   Clear
6:15 PM 73.4 °F 46.4 °F 38% 29.92 in 10.0 mi SSW 9.2 mph - N/A   Clear
6:35 PM 71.6 °F 46.4 °F 41% 29.92 in 10.0 mi SSW 5.8 mph - N/A   Clear
7:15 PM 64.4 °F 48.2 °F 56% 29.92 in 8.0 mi South 8.1 mph - N/A   Clear
7:35 PM 60.8 °F 48.2 °F 63% 29.92 in 5.0 mi SSE 8.1 mph - N/A   Haze
7:55 PM 59.0 °F 48.2 °F 67% 29.92 in 7.0 mi South 5.8 mph - N/A   Clear
8:15 PM 59.0 °F 48.2 °F 67% 29.93 in 9.0 mi Calm Calm - N/A   Clear
8:35 PM 59.0 °F 48.2 °F 67% 29.94 in 10.0 mi South 3.5 mph - N/A   Clear
8:55 PM 59.0 °F 48.2 °F 67% 29.94 in 10.0 mi SW 3.5 mph - N/A   Clear
9:15 PM 57.2 °F 48.2 °F 72% 29.94 in 10.0 mi SSW 3.5 mph - N/A   Clear
9:35 PM 55.4 °F 46.4 °F 72% 29.94 in 10.0 mi Calm Calm - N/A   Clear
9:55 PM 55.4 °F 46.4 °F 72% 29.95 in 10.0 mi Calm Calm - N/A   Clear
10:15 PM 55.4 °F 46.4 °F 72% 29.95 in 10.0 mi Calm Calm - N/A   Clear
10:35 PM 53.6 °F 46.4 °F 77% 29.95 in 10.0 mi ESE 4.6 mph - N/A   Clear
11:15 PM 51.8 °F 46.4 °F 82% 29.96 in 10.0 mi East 5.8 mph - N/A   Clear
11:35 PM 50.0 °F 46.4 °F 87% 29.96 in 10.0 mi ENE 3.5 mph - N/A   Clear
11:55 PM 51.8 °F 46.4 °F 82% 29.96 in 10.0 mi ENE 4.6 mph - N/A   Clear